Regional Weather Roundup
Issued by NWS

Home | Current Version | Previous Version | Graphics & Text | Print | Product List | Glossary On
Versions: 1 2 3 4 5 6 7 8 9 10 11 12 13 14 15 16 17 18 19 20 21 22 23 24 25 26 27 28 29 30 31 32 33 34 35 36 37 38 39 40 41 42 43 44 45 46 47 48 49 50
785
ASUS43 KLMK 300002
RWRKY
KENTUCKY REGIONAL WEATHER ROUNDUP
NATIONAL WEATHER SERVICE LOUISVILLE KY
800 PM EDT FRI APR 29 2016

NOTE "FAIR" INDICATES FEW OR NO CLOUDS BELOW 12,000 FEET
WITH NO SIGNIFICANT WEATHER AND/OR OBSTRUCTIONS TO VISIBILITY.

KYZ001>023-026-027-061>063-070>075-300100-
WESTERN AND SOUTH CENTRAL KENTUCKY

CITY           SKY/WX    TMP DP  RH WIND       PRES   REMARKS
PADUCAH        CLOUDY    62  58  86 E8        29.93F
HENDERSON      CLOUDY    66  54  63 NE5       29.96R
OWENSBORO      CLOUDY    67  55  65 NE7       29.98F
HOPKINSVILLE   MOCLDY    64  61  90 E6        29.94F
BOWLING GREEN  CLOUDY    69  59  70 CALM      29.99F
GLASGOW        NOT AVBL
$$

KYZ024-025-028>034-038-045-046-053-300100-
NORTH CENTRAL KENTUCKY

CITY           SKY/WX    TMP DP  RH WIND       PRES   REMARKS
LOUISVILLE/SDF CLOUDY    70  47  43 CALM      30.01R
LOUISVILLE/LOU CLOUDY    69  48  47 N3        30.01S
FORT KNOX      CLOUDY    64  54  68 N6        29.98S
$$

KYZ035>037-039>044-047>052-055>060-089>105-300100-
NORTHEAST KENTUCKY

CITY           SKY/WX    TMP DP  RH WIND       PRES   REMARKS
LEXINGTON      CLOUDY    65  50  58 N5        30.03S
COVINGTON      CLOUDY    63  49  60 W3        30.04R
FRANKFORT      CLOUDY    67  49  52 CALM      30.01F
$$

KYZ054-064>069-076>088-106>120-300100-
SOUTHEAST KENTUCKY

CITY           SKY/WX    TMP DP  RH WIND       PRES   REMARKS
JACKSON        PTCLDY    69  50  50 VRB6      30.03R
LONDON         CLOUDY    72  50  45 CALM      30.02S
SOMERSET       NOT AVBL
MIDDLESBORO    CLOUDY    71  55  55 W3        30.01F
MONTICELLO     CLOUDY    68  58  70 NE12      30.02
$$





USA.gov is the U.S. government's official web portal to all federal, state and local government web resources and services.